Zurück zum Katalog

ONEWEB-0311

AktivKommunikationPO
NORAD 49097·PAYLOAD·🇬🇧 United Kingdom

Gestartet Aug 21, 2021 von Baikonur Cosmodrome

Loading…

Nächste Überflüge (nächste 24 Stunden)

TLE

AktuellSource: CelesTrak SupGP

Epoche: Sep 14, 2026, 07:51 UTC

1 49097C 21075Y   26257.32759676 -.00002057  00000+0 -53042-2 0  2579
2 49097  87.9207 348.1604 0002070 114.5072 277.9164 13.17653364    15

Verfolge ONEWEB-0311 in Echtzeit mit AllMySat

Download on the App Store